DW2363 Weather Reports


time (UTC)temp
C
wind
direction
speed
KPH
gust
KPH
rain 1hr
cm
rain 24hr
cm
rain mn
cm
humidity
%
barometer
mb
20260831211956 23 168 8.0 12.9 0.00 0.00 0.00 70 1014.6
20260831211952 22 180 8.0 17.7 0.00 0.00 0.00 74 1014.8
20260831210952 22 197 9.7 17.7 0.00 0.00 0.00 75 1014.9
20260831210454 22 196 9.7 19.3 0.00 0.00 0.00 74 1014.9
20260831210450 22 210 9.7 19.3 0.00 0.00 0.00 75 1014.9
20260831205449 22 204 8.0 17.7 0.00 0.00 0.00 75 1014.9
20260831204949 22 215 8.0 17.7 0.00 0.00 0.00 74 1014.9
20260831204449 21 232 9.7 17.7 0.00 0.00 0.00 76 1014.9
20260831203947 21 163 9.7 16.1 0.00 0.00 0.00 76 1014.9
20260831203447 22 206 9.7 16.1 0.00 0.00 0.00 77 1014.9
20260831202947 21 192 8.0 16.1 0.00 0.00 0.00 78 1015.0
20260831202447 21 160 8.0 16.1 0.00 0.00 0.00 79 1014.9
20260831201947 22 215 9.7 16.1 0.00 0.00 0.00 75 1015.0
20260831201445 22 174 9.7 16.1 0.00 0.00 0.00 76 1015.0
20260831200945 22 216 9.7 17.7 0.00 0.00 0.00 77 1015.0
20260831200446 22 188 9.7 17.7 0.00 0.00 0.00 76 1015.0
20260831195945 22 177 9.7 16.1 0.00 0.00 0.00 77 1015.0
20260831195446 22 202 9.7 16.1 0.00 0.00 0.00 77 1015.1
20260831194947 22 175 9.7 17.7 0.00 0.00 0.00 77 1015.1
20260831194443 22 202 9.7 17.7 0.00 0.00 0.00 77 1015.2
20260831193943 22 171 9.7 16.1 0.00 0.00 0.00 75 1015.2
20260831193445 22 175 8.0 14.5 0.00 0.00 0.00 77 1015.2
20260831192944 22 209 9.7 16.1 0.00 0.00 0.00 77 1015.3
20260831192444 22 182 9.7 16.1 0.00 0.00 0.00 77 1015.3
20260831191942 22 173 11.3 17.7 0.00 0.00 0.00 78 1015.3
20260831191442 21 194 9.7 17.7 0.00 0.00 0.00 78 1015.4
20260831190942 22 188 8.0 14.5 0.00 0.00 0.00 77 1015.4
20260831190446 21 182 6.4 14.5 0.00 0.00 0.00 80 1015.3
20260831190442 22 184 6.4 12.9 0.00 0.00 0.00 80 1015.4
20260831185442 21 189 6.4 14.5 0.00 0.00 0.00 80 1015.4
20260831184942 21 207 6.4 14.5 0.00 0.00 0.00 78 1015.3
20260831184442 21 171 8.0 14.5 0.00 0.00 0.00 79 1015.4
20260831183942 22 218 8.0 14.5 0.00 0.00 0.00 78 1015.3
20260831183442 22 194 8.0 14.5 0.00 0.00 0.00 77 1015.3
20260831182945 22 136 6.4 12.9 0.00 0.00 0.00 75 1015.3
20260831182939 22 153 8.0 12.9 0.00 0.00 0.00 76 1015.3
20260831182546 22 139 4.8 11.3 0.00 0.00 0.00 77 1015.4
20260831182047 22 159 4.8 12.9 0.00 0.00 0.00 80 1015.4
20260831180939 21 163 8.0 14.5 0.00 0.00 0.00 80 1015.4
20260831180444 21 157 6.4 12.9 0.00 0.00 0.00 79 1015.3
20260831180439 21 128 6.4 14.5 0.00 0.00 0.00 80 1015.3
20260831175438 21 150 6.4 12.9 0.00 0.00 0.00 80 1015.2
20260831174939 21 119 6.4 12.9 0.00 0.00 0.00 81 1015.3
20260831174439 21 116 6.4 12.9 0.00 0.00 0.00 80 1015.2
20260831173937 21 102 6.4 14.5 0.00 0.00 0.00 80 1015.2
20260831173443 21 103 6.4 12.9 0.00 0.00 0.00 82 1015.2
20260831173437 21 126 6.4 14.5 0.00 0.00 0.00 81 1015.1
20260831172437 21 169 4.8 12.9 0.00 0.00 0.00 82 1015.1
20260831171936 21 116 3.2 12.9 0.00 0.00 0.00 82 1015.2
20260831171442 21 171 4.8 11.3 0.00 0.00 0.00 82 1015.2
20260831171435 21 209 4.8 11.3 0.00 0.00 0.00 81 1015.2
20260831170433 21 193 4.8 11.3 0.00 0.00 0.00 82 1015.1
20260831165932 21 138 6.4 12.9 0.00 0.00 0.00 82 1015.0
20260831165432 20 167 8.0 14.5 0.00 0.00 0.00 82 1015.0
20260831164933 20 174 6.4 14.5 0.00 0.00 0.00 82 1015.0
20260831164434 20 181 6.4 12.9 0.00 0.00 0.00 81 1014.9
20260831163932 20 173 6.4 12.9 0.00 0.00 0.00 81 1014.8
20260831163432 20 125 8.0 12.9 0.00 0.00 0.00 81 1014.8
20260831162933 20 139 8.0 12.9 0.00 0.00 0.00 80 1014.8
20260831162431 20 150 9.7 12.9 0.00 0.00 0.00 79 1014.6
20260831161931 20 126 8.0 14.5 0.00 0.00 0.00 79 1014.8
20260831161431 20 136 6.4 14.5 0.00 0.00 0.00 79 1014.5
20260831160930 20 97 8.0 12.9 0.00 0.00 0.00 80 1014.6
20260831160431 20 98 8.0 12.9 0.00 0.00 0.00 80 1014.5
20260831155934 20 109 6.4 12.9 0.00 0.00 0.00 79 1014.5
20260831155930 20 116 8.0 12.9 0.00 0.00 0.00 80 1014.5
20260831155538 20 105 8.0 12.9 0.00 0.00 0.00 79 1014.5
20260831154435 20 123 8.0 12.9 0.00 0.00 0.00 79 1014.5
20260831154431 20 147 8.0 12.9 0.00 0.00 0.00 79 1014.6
20260831154039 20 93 6.4 12.9 0.00 0.00 0.00 79 1014.5
20260831152930 20 96 8.0 12.9 0.00 0.00 0.00 78 1014.5
20260831152431 20 80 8.0 12.9 0.00 0.00 0.00 77 1014.5
20260831151930 20 121 6.4 11.3 0.00 0.00 0.00 76 1014.4
20260831151431 20 96 8.0 14.5 0.00 0.00 0.00 76 1014.3
20260831150930 19 44 9.7 14.5 0.00 0.00 0.00 78 1014.3
20260831150430 19 73 9.7 14.5 0.00 0.00 0.00 77 1014.2
20260831145931 19 85 6.4 12.9 0.00 0.00 0.00 79 1014.1
20260831145430 19 75 6.4 9.7 0.00 0.00 0.00 81 1014.2
20260831144930 19 84 4.8 11.3 0.00 0.00 0.00 79 1014.2
20260831144430 19 75 4.8 11.3 0.00 0.00 0.00 77 1014.2
20260831143928 19 74 4.8 11.3 0.00 0.00 0.00 77 1014.2
20260831143427 20 84 6.4 11.3 0.00 0.00 0.00 74 1014.2
20260831142926 20 96 4.8 11.3 0.00 0.00 0.00 73 1014.1
20260831142426 19 104 3.2 6.4 0.00 0.00 0.00 74 1014.0
20260831141928 19 104 3.2 6.4 0.00 0.00 0.00 74 1013.9
20260831141924 19 104 3.2 6.4 0.00 0.00 0.00 74 1013.9
20260831140928 19 104 6.4 11.3 0.00 0.00 0.00 73 1013.8
20260831140924 19 104 3.2 6.4 0.00 0.00 0.00 73 1013.8
20260831135923 19 104 6.4 11.3 0.00 0.00 0.00 72 1013.6
20260831135422 18 104 4.8 11.3 0.00 0.00 0.00 74 1013.7
20260831134922 18 104 4.8 9.7 0.00 0.00 0.00 75 1013.6
20260831134422 18 104 4.8 9.7 0.00 0.00 0.00 72 1013.5
20260831133922 18 104 6.4 9.7 0.00 0.00 0.00 74 1013.5
20260831133422 18 104 8.0 9.7 0.00 0.00 0.00 72 1013.4
20260831132920 18 104 4.8 9.7 0.00 0.00 0.00 75 1013.4
20260831132420 18 104 4.8 6.4 0.00 0.00 0.00 78 1013.4
20260831132029 17 104 3.2 9.7 0.00 0.00 0.00 82 1013.4
20260831131925 17 104 4.8 9.7 0.00 0.00 0.00 79 1013.4
20260831131919 17 104 4.8 9.7 0.00 0.00 0.00 79 1013.4
20260831131029 17 104 1.6 4.8 0.00 0.00 0.00 86 1013.4
20260831125920 17 104 1.6 4.8 0.00 0.00 0.00 86 1013.2
20260831125420 17 104 4.8 12.9 0.00 0.00 0.00 88 1013.2
20260831124920 17 104 6.4 12.9 0.00 0.00 0.00 87 1013.5
20260831124421 17 96 8.0 12.9 0.00 0.00 0.00 87 1013.4
20260831123924 17 98 8.0 12.9 0.00 0.00 0.00 88 1013.2
20260831123918 17 98 9.7 14.5 0.00 0.00 0.00 88 1013.4
20260831122918 17 92 9.7 14.5 0.00 0.00 0.00 88 1013.2
20260831122418 17 98 11.3 14.5 0.00 0.00 0.00 87 1013.2
20260831121918 17 105 12.9 14.5 0.00 0.00 0.00 87 1013.2
20260831121418 17 111 12.9 14.5 0.00 0.00 0.00 85 1013.2
20260831120918 17 111 12.9 14.5 0.00 0.00 0.00 83 1013.1
20260831120418 17 113 12.9 14.5 0.00 0.00 0.00 79 1013.1
20260831115918 17 114 11.3 14.5 0.00 0.00 0.00 74 1013.0
20260831115418 17 119 11.3 12.9 0.00 0.00 0.00 72 1013.1
20260831114917 17 117 12.9 14.5 0.00 0.00 0.00 72 1013.1
20260831114415 17 117 11.3 14.5 0.00 0.00 0.00 71 1013.1
20260831113916 17 122 11.3 14.5 0.00 0.00 0.00 69 1013.0
20260831113416 17 120 11.3 14.5 0.00 0.00 0.00 70 1013.1
20260831112916 17 118 11.3 14.5 0.00 0.00 0.00 72 1013.1
20260831112415 17 111 11.3 14.5 0.00 0.00 0.00 72 1013.1
20260831111916 17 119 9.7 12.9 0.00 0.00 0.00 71 1013.1
20260831111414 17 111 11.3 16.1 0.00 0.00 0.00 72 1013.2
20260831110914 17 107 9.7 16.1 0.00 0.00 0.00 72 1013.4
20260831110414 18 122 9.7 16.1 0.00 0.00 0.00 72 1013.4
20260831105912 18 111 12.9 16.1 0.00 0.00 0.00 72 1013.4
20260831105410 18 105 11.3 14.5 0.00 0.00 0.00 73 1013.4
20260831104910 18 99 11.3 16.1 0.00 0.00 0.00 74 1013.4
20260831104409 18 101 11.3 16.1 0.00 0.00 0.00 74 1013.4
20260831103909 18 96 12.9 16.1 0.00 0.00 0.00 74 1013.2
20260831103408 18 95 12.9 16.1 0.00 0.00 0.00 74 1013.2
20260831102911 18 85 14.5 17.7 0.00 0.00 0.00 72 1013.4
20260831102907 18 86 12.9 17.7 0.00 0.00 0.00 73 1013.2
20260831101911 18 88 14.5 19.3 0.00 0.00 0.00 71 1013.2
20260831101907 18 86 14.5 19.3 0.00 0.00 0.00 72 1013.2
20260831100905 18 86 11.3 19.3 0.00 0.00 0.00 71 1013.4
20260831100409 18 45 8.0 14.5 0.00 0.00 0.00 69 1013.4
20260831100405 18 85 8.0 14.5 0.00 0.00 0.00 70 1013.4
20260831095406 18 53 8.0 14.5 0.00 0.00 0.00 68 1013.4
20260831094907 19 62 6.4 14.5 0.00 0.00 0.00 67 1013.2
20260831094407 19 65 3.2 8.0 0.00 0.00 0.00 67 1013.4
20260831094403 19 45 4.8 11.3 0.00 0.00 0.00 67 1013.2
20260831094012 19 56 3.2 8.0 0.00 0.00 0.00 66 1013.4
20260831092903 19 51 4.8 11.3 0.00 0.00 0.00 66 1013.4
20260831092403 19 52 6.4 12.9 0.00 0.00 0.00 66 1013.2
20260831091904 19 67 4.8 12.9 0.00 0.00 0.00 66 1013.1
20260831091404 19 53 3.2 8.0 0.00 0.00 0.00 66 1013.2
20260831090903 20 67 3.2 8.0 0.00 0.00 0.00 66 1013.4
20260831090404 20 69 1.6 4.8 0.00 0.00 0.00 65 1013.4
20260831085903 20 66 1.6 11.3 0.00 0.00 0.00 65 1013.4
20260831085407 20 67 8.0 11.3 0.00 0.00 0.00 64 1013.4
20260831085403 20 66 4.8 11.3 0.00 0.00 0.00 65 1013.5
20260831084404 20 42 9.7 14.5 0.00 0.00 0.00 63 1013.5
20260831083903 20 38 11.3 14.5 0.00 0.00 0.00 65 1013.5
20260831083404 20 34 11.3 14.5 0.00 0.00 0.00 64 1013.5
20260831082903 20 44 9.7 14.5 0.00 0.00 0.00 65 1013.5
20260831082403 21 36 9.7 12.9 0.00 0.00 0.00 66 1013.5
20260831081903 21 44 9.7 11.3 0.00 0.00 0.00 65 1013.5
20260831081408 21 46 9.7 11.3 0.00 0.00 0.00 67 1013.5
20260831081404 21 46 8.0 11.3 0.00 0.00 0.00 65 1013.5
20260831080407 21 46 9.7 11.3 0.00 0.00 0.00 67 1013.4
20260831080403 21 41 9.7 11.3 0.00 0.00 0.00 67 1013.4
20260831075403 21 46 9.7 11.3 0.00 0.00 0.00 67 1013.5
20260831074903 21 52 9.7 11.3 0.00 0.00 0.00 67 1013.4
20260831074403 21 57 9.7 11.3 0.00 0.00 0.00 67 1013.4
20260831073903 22 59 9.7 11.3 0.00 0.00 0.00 66 1013.2
20260831073407 22 52 8.0 9.7 0.00 0.00 0.00 67 1013.4
20260831073403 22 57 8.0 11.3 0.00 0.00 0.00 66 1013.4
20260831072402 22 52 6.4 9.7 0.00 0.00 0.00 66 1013.4
20260831071906 22 83 3.2 8.0 0.00 0.00 0.00 66 1013.4
20260831071902 22 72 4.8 8.0 0.00 0.00 0.00 66 1013.2
20260831070902 22 83 4.8 8.0 0.00 0.00 0.00 65 1013.5
20260831070402 22 36 4.8 6.4 0.00 0.00 0.00 64 1013.5
20260831065902 22 36 4.8 6.4 0.00 0.00 0.00 63 1013.5
20260831065402 22 36 4.8 8.0 0.00 0.00 0.00 63 1013.5
20260831064902 22 26 4.8 8.0 0.00 0.00 0.00 63 1013.5
20260831064402 22 12 4.8 6.4 0.00 0.00 0.00 63 1013.6
20260831063902 22 12 4.8 6.4 0.00 0.00 0.00 62 1013.5
20260831063359 22 12 4.8 6.4 0.00 0.00 0.00 62 1013.5
20260831062905 22 67 3.2 4.8 0.00 0.00 0.00 61 1013.6
20260831062859 22 67 3.2 4.8 0.00 0.00 0.00 61 1013.5
20260831061859 22 67 1.6 4.8 0.00 0.00 0.00 61 1013.5
20260831061359 22 67 1.6 4.8 0.00 0.00 0.00 61 1013.5
20260831060858 22 44 1.6 4.8 0.00 0.00 0.00 62 1013.4
20260831060358 22 44 3.2 6.4 0.00 0.00 0.00 61 1013.5
20260831055857 22 44 4.8 6.4 0.00 0.00 0.00 61 1013.5
20260831055356 22 44 3.2 6.4 0.00 0.00 0.00 61 1013.5
20260831054857 23 71 3.2 4.8 0.00 0.00 0.00 60 1013.6
20260831054357 23 70 3.2 4.8 0.00 0.00 0.00 61 1013.6
20260831053855 23 70 3.2 4.8 0.00 0.00 0.00 62 1013.6
20260831053354 23 70 3.2 4.8 0.00 0.00 0.00 62 1013.5
20260831052854 23 70 1.6 4.8 0.00 0.00 0.00 62 1013.5
20260831052355 23 71 1.6 3.2 0.00 0.00 0.00 60 1013.5
20260831051854 23 70 3.2 4.8 0.00 0.00 0.00 59 1013.5
20260831051352 23 70 3.2 4.8 0.00 0.00 0.00 59 1013.5
20260831050853 23 70 1.6 4.8 0.00 0.00 0.00 57 1013.5
20260831050353 23 23 0.0 3.2 0.00 0.00 0.00 51 1013.6
20260831045851 23 11 0.0 0.0 0.00 0.00 0.00 51 1013.5
20260831045351 23 11 1.6 3.2 0.00 0.00 0.00 55 1013.5
20260831044850 23 11 3.2 6.4 0.00 0.00 0.00 64 1013.5
20260831044350 22 5 4.8 6.4 0.00 0.00 0.00 65 1013.5
20260831043851 22 5 4.8 6.4 0.00 0.00 0.00 65 1013.5
20260831043352 23 5 4.8 6.4 0.00 0.00 0.00 64 1013.5
20260831042856 23 33 3.2 4.8 0.00 0.00 0.00 64 1013.4
20260831042852 23 5 3.2 6.4 0.00 0.00 0.00 65 1013.4
20260831041851 23 80 3.2 6.4 0.00 0.00 0.00 63 1013.4
20260831041644 23 190 0.0 1.6 0.00 0.00 0.00 59 1013.2
20260831041636 23 186 1.6 6.4 0.00 0.00 0.00 64 1013.2
20260831040351 23 190 0.0 1.6 0.00 0.00 0.00 59 1013.1
20260831035856 23 190 0.0 1.6 0.00 0.00 0.00 58 1013.1
20260831035852 23 190 0.0 1.6 0.00 0.00 0.00 59 1013.0
20260831034852 24 190 0.0 3.2 0.00 0.00 0.00 56 1013.0
20260831034352 24 190 3.2 6.4 0.00 0.00 0.00 56 1012.8
20260831033851 24 190 4.8 6.4 0.00 0.00 0.00 55 1012.7
20260831033351 24 190 4.8 6.4 0.00 0.00 0.00 54 1012.6
20260831032856 24 190 1.6 4.8 0.00 0.00 0.00 52 1012.5
20260831032852 24 190 3.2 4.8 0.00 0.00 0.00 54 1012.6
20260831031851 24 186 0.0 9.7 0.00 0.00 0.00 56 1012.6
20260831031351 24 186 3.2 9.7 0.00 0.00 0.00 57 1012.6
20260831030851 24 186 6.4 9.7 0.00 0.00 0.00 55 1012.5
20260831030351 24 194 8.0 9.7 0.00 0.00 0.00 53 1012.4
20260831025854 24 209 6.4 9.7 0.00 0.00 0.00 53 1012.4
20260831025850 24 219 8.0 9.7 0.00 0.00 0.00 52 1012.3
20260831024848 24 221 6.4 9.7 0.00 0.00 0.00 53 1012.4
20260831024348 24 230 6.4 9.7 0.00 0.00 0.00 59 1012.4
20260831023852 24 227 8.0 9.7 0.00 0.00 0.00 62 1012.4
20260831023848 24 226 6.4 9.7 0.00 0.00 0.00 60 1012.5
20260831022848 24 222 6.4 9.7 0.00 0.00 0.00 63 1012.4
20260831022350 24 207 6.4 9.7 0.00 0.00 0.00 61 1012.3
20260831022346 24 221 6.4 9.7 0.00 0.00 0.00 62 1012.3
20260831021350 25 236 6.4 11.3 0.00 0.00 0.00 61 1012.4
20260831021346 25 225 4.8 8.0 0.00 0.00 0.00 58 1012.4
20260831020346 25 244 6.4 11.3 0.00 0.00 0.00 58 1012.3
20260831015846 25 247 6.4 12.9 0.00 0.00 0.00 59 1012.2
20260831015347 26 246 6.4 12.9 0.00 0.00 0.00 58 1012.2
20260831014847 26 279 8.0 12.9 0.00 0.00 0.00 59 1012.4
20260831014345 26 267 8.0 12.9 0.00 0.00 0.00 58 1012.3
20260831013847 26 261 6.4 12.9 0.00 0.00 0.00 58 1012.4
20260831013346 26 235 4.8 12.9 0.00 0.00 0.00 56 1012.4
20260831012846 26 224 6.4 14.5 0.00 0.00 0.00 55 1012.4
20260831012346 25 242 9.7 14.5 0.00 0.00 0.00 53 1012.4
20260831011846 25 229 9.7 12.9 0.00 0.00 0.00 53 1012.4
20260831011351 26 236 8.0 12.9 0.00 0.00 0.00 51 1012.4
20260831011346 26 229 9.7 12.9 0.00 0.00 0.00 51 1012.4
20260831010350 25 247 8.0 12.9 0.00 0.00 0.00 57 1012.4
20260831010345 25 222 8.0 11.3 0.00 0.00 0.00 53 1012.4
20260831005344 25 238 9.7 12.9 0.00 0.00 0.00 56 1012.4
20260831004848 25 229 8.0 11.3 0.00 0.00 0.00 58 1012.4
20260831004844 25 234 8.0 12.9 0.00 0.00 0.00 58 1012.5
20260831003849 26 227 8.0 12.9 0.00 0.00 0.00 52 1012.4
20260831003844 26 232 8.0 12.9 0.00 0.00 0.00 57 1012.5
20260831002844 26 252 9.7 12.9 0.00 0.00 0.00 51 1012.5
20260831002344 26 223 9.7 12.9 0.00 0.00 0.00 49 1012.5
20260831001845 25 205 9.7 12.9 0.00 0.00 0.00 51 1012.5
20260831001344 25 223 8.0 12.9 0.00 0.00 0.00 55 1012.4
20260831000843 25 238 8.0 11.3 0.00 0.00 0.00 57 1012.5
20260831000342 25 237 8.0 11.3 0.00 0.00 0.00 51 1012.4
20260830235841 26 232 8.0 11.3 0.00 0.00 0.00 51 1012.5
20260830235342 26 226 8.0 11.3 0.00 0.00 0.00 53 1012.5
20260830234840 26 203 6.4 9.7 0.00 0.00 0.00 57 1012.5
20260830234340 26 238 6.4 9.7 0.00 0.00 0.00 55 1012.5
20260830233839 25 225 6.4 11.3 0.00 0.00 0.00 58 1012.6
20260830233340 25 242 8.0 11.3 0.00 0.00 0.00 60 1012.5
20260830232840 25 247 8.0 11.3 0.00 0.00 0.00 61 1012.6
20260830232343 25 242 8.0 11.3 0.00 0.00 0.00 62 1012.6
20260830232339 25 219 6.4 11.3 0.00 0.00 0.00 60 1012.6
20260830231340 26 232 6.4 9.7 0.00 0.00 0.00 59 1012.7
20260830231336 26 236 6.4 9.7 0.00 0.00 0.00 60 1012.7
20260830230334 26 227 4.8 9.7 0.00 0.00 0.00 57 1012.7
20260830225834 26 236 4.8 9.7 0.00 0.00 0.00 59 1012.8
20260830225332 26 214 4.8 8.0 0.00 0.00 0.00 60 1012.8
20260830224831 26 227 4.8 9.7 0.00 0.00 0.00 60 1012.8
20260830224331 26 227 4.8 9.7 0.00 0.00 0.00 56 1012.9
20260830223832 26 221 6.4 11.3 0.00 0.00 0.00 52 1012.9
20260830223335 26 220 6.4 11.3 0.00 0.00 0.00 56 1013.1
20260830223331 26 234 6.4 11.3 0.00 0.00 0.00 59 1013.0
20260830222336 26 212 6.4 14.5 0.00 0.00 0.00 61 1013.4
20260830222332 26 242 6.4 11.3 0.00 0.00 0.00 56 1013.2
20260830221938 26 186 6.4 14.5 0.00 0.00 0.00 54 1013.4
20260830220832 26 214 6.4 14.5 0.00 0.00 0.00 59 1013.4
20260830220332 26 193 6.4 14.5 0.00 0.00 0.00 60 1013.4
20260830215831 26 192 6.4 12.9 0.00 0.00 0.00 61 1013.6
20260830215332 25 219 8.0 12.9 0.00 0.00 0.00 62 1013.5
20260830214831 25 178 9.7 14.5 0.00 0.00 0.00 62 1013.6
20260830214331 26 202 9.7 16.1 0.00 0.00 0.00 60 1013.7
20260830213832 26 201 9.7 17.7 0.00 0.00 0.00 61 1013.8
20260830213332 26 176 9.7 17.7 0.00 0.00 0.00 59 1013.8
20260830212831 26 183 9.7 19.3 0.00 0.00 0.00 59 1013.9